Reno - Stead, NV

9:09 PM PDT on June 28, 2017 (GMT -0700)
Reno - Stead

Weather History for KRTS - October, 2011

Change the Weather History Date:

Sunday, October 16, 2011

  Actual Average (KRNO) Record (KRNO)
Temperature  
Mean Temperature 60 °F -  
Max Temperature 73 °F 69 °F 85 °F (1991)
Min Temperature 48 °F 32 °F 18 °F (1965)
Degree Days  
Heating Degree Days 4    
Growing Degree Days 10 (Base 50)    
Moisture  
Dew Point 36 °F    
Average Humidity 39    
Maximum Humidity 71    
Minimum Humidity 22    
Precipitation  
Precipitation 0.00 in - - ()
Sea Level Pressure  
Sea Level Pressure 30.19 in    
Wind  
Wind Speed 9 mph ()    
Max Wind Speed 20 mph    
Max Gust Speed 26 mph    
Visibility 10.0 miles    
Events      
Averages and records for this station are not official NWS values.
T = Trace of Precipitation, MM = Missing Value Source: Averaged Metar Reports

Daily Weather History Graph

Daily Weather History Graph

Search for Another Location

Airport or City:

Trip Planner

Search our weather history database for the weather conditions in past years. The results will help you decide how hot, cold, wet, or windy it might be!

Date:

Astronomy

Oct. 16, 2011 Rise Set
Actual Time 7:10 AM PDT 6:19 PM PDT
Civil Twilight 6:43 AM PDT 6:46 PM PDT
Nautical Twilight 6:12 AM PDT 7:17 PM PDT
Astronomical Twilight 5:40 AM PDT 7:48 PM PDT
Moon 9:10 PM PDT (10/16) 11:31 AM PDT (10/16)
Length of Visible Light 12h 02m
Length of Day
11h 08m
Waning Gibbous, 81% of the Moon is Illuminated
Oct 16
Waning Gibbous
Oct 19
Last Quarter
Oct 26
New
Nov 2
First Quarter
Nov 10
Full

Hourly Weather History & Observations

Time (PDT) Temp. Dew Point Humidity Pressure Visibility Wind Dir Wind Speed Gust Speed Precip Events Conditions
12:15 AM 62.6 °F 39.2 °F 42% 30.12 in 10.0 mi WNW 12.7 mph 18.4 mph N/A   Clear
12:35 AM 62.6 °F 39.2 °F 42% 30.13 in 10.0 mi WNW 13.8 mph 20.7 mph N/A   Clear
12:55 AM 62.6 °F 39.2 °F 42% 30.12 in 10.0 mi WNW 16.1 mph 20.7 mph N/A   Clear
1:15 AM 62.6 °F 39.2 °F 42% 30.12 in 10.0 mi WNW 13.8 mph - N/A   Clear
1:35 AM 62.6 °F 37.4 °F 39% 30.13 in 10.0 mi West 4.6 mph 24.2 mph N/A   Clear
1:55 AM 62.6 °F 35.6 °F 37% 30.13 in 10.0 mi West 6.9 mph - N/A   Clear
2:15 AM 62.6 °F 37.4 °F 39% 30.14 in 10.0 mi WSW 9.2 mph 16.1 mph N/A   Clear
2:35 AM 62.6 °F 37.4 °F 39% 30.12 in 10.0 mi WNW 10.4 mph - N/A   Mostly Cloudy
2:55 AM 62.6 °F 35.6 °F 37% 30.13 in 10.0 mi SE 4.6 mph - N/A   Mostly Cloudy
3:15 AM 60.8 °F 39.2 °F 45% 30.13 in 10.0 mi NW 8.1 mph - N/A   Overcast
3:35 AM 60.8 °F 37.4 °F 42% 30.13 in 10.0 mi NNW 6.9 mph - N/A   Overcast
3:55 AM 60.8 °F 37.4 °F 42% 30.12 in 10.0 mi NNW 5.8 mph - N/A   Overcast
4:15 AM 60.8 °F 37.4 °F 42% 30.12 in 10.0 mi North 9.2 mph - N/A   Overcast
4:35 AM 60.8 °F 37.4 °F 42% 30.13 in 10.0 mi NW 5.8 mph - N/A   Overcast
4:55 AM 59.0 °F 37.4 °F 45% 30.14 in 10.0 mi Calm Calm - N/A   Overcast
5:15 AM 60.8 °F 35.6 °F 39% 30.15 in 10.0 mi WNW 3.5 mph - N/A   Overcast
5:35 AM 62.6 °F 35.6 °F 37% 30.15 in 10.0 mi WNW 8.1 mph - N/A   Overcast
5:55 AM 62.6 °F 35.6 °F 37% 30.15 in 10.0 mi West 4.6 mph - N/A   Mostly Cloudy
6:15 AM 60.8 °F 35.6 °F 39% 30.14 in 10.0 mi NW 4.6 mph - N/A   Partly Cloudy
6:35 AM 59.0 °F 37.4 °F 45% 30.15 in 10.0 mi NW 10.4 mph - N/A   Partly Cloudy
7:15 AM 59.0 °F 35.6 °F 42% 30.15 in 10.0 mi NW 6.9 mph - N/A   Clear
7:35 AM 59.0 °F 35.6 °F 42% 30.15 in 10.0 mi Calm Calm - N/A   Clear
7:55 AM 60.8 °F 35.6 °F 39% 30.16 in 10.0 mi SSW 12.7 mph 18.4 mph N/A   Clear
8:15 AM 62.6 °F 33.8 °F 34% 30.17 in 10.0 mi Calm Calm - N/A   Clear
8:35 AM 60.8 °F 35.6 °F 39% 30.17 in 10.0 mi SSE 4.6 mph - N/A   Clear
8:55 AM 62.6 °F 35.6 °F 37% 30.18 in 10.0 mi North 6.9 mph - N/A   Clear
9:15 AM 62.6 °F 35.6 °F 37% 30.18 in 10.0 mi North 4.6 mph - N/A   Clear
9:35 AM 64.4 °F 35.6 °F 34% 30.19 in 10.0 mi WNW 4.6 mph - N/A   Clear
9:55 AM 66.2 °F 35.6 °F 32% 30.19 in 10.0 mi West 11.5 mph 18.4 mph N/A   Clear
10:15 AM 68.0 °F 37.4 °F 33% 30.19 in 10.0 mi West 13.8 mph 21.9 mph N/A   Scattered Clouds
10:35 AM 64.4 °F 37.4 °F 37% 30.19 in 10.0 mi WSW 10.4 mph - N/A   Mostly Cloudy
10:55 AM 64.4 °F 39.2 °F 40% 30.19 in 10.0 mi SW 5.8 mph - N/A   Scattered Clouds
11:15 AM 64.4 °F 39.2 °F 40% 30.19 in 10.0 mi North 8.1 mph - N/A   Clear
11:55 AM 66.2 °F 37.4 °F 35% 30.19 in 10.0 mi ESE 3.5 mph - N/A   Clear
12:15 PM 71.6 °F 37.4 °F 29% 30.18 in 10.0 mi NW 10.4 mph - N/A   Clear
12:35 PM 71.6 °F 35.6 °F 27% 30.18 in 10.0 mi WNW 16.1 mph 23.0 mph N/A   Clear
12:55 PM 73.4 °F 35.6 °F 25% 30.18 in 10.0 mi WNW 12.7 mph 20.7 mph N/A   Clear
1:15 PM 73.4 °F 35.6 °F 25% 30.17 in 10.0 mi WNW 17.3 mph 23.0 mph N/A   Partly Cloudy
1:35 PM 73.4 °F 32.0 °F 22% 30.16 in 10.0 mi West 18.4 mph 23.0 mph N/A   Clear
1:55 PM 73.4 °F 32.0 °F 22% 30.16 in 10.0 mi WNW 19.6 mph 26.5 mph N/A   Clear
2:15 PM 69.8 °F 32.0 °F 25% 30.16 in 10.0 mi WNW 19.6 mph 24.2 mph N/A   Scattered Clouds
2:35 PM 69.8 °F 32.0 °F 25% 30.16 in 10.0 mi WNW 19.6 mph 24.2 mph N/A   Mostly Cloudy
2:55 PM 68.0 °F 32.0 °F 26% 30.16 in 10.0 mi WNW 17.3 mph 23.0 mph N/A   Scattered Clouds
3:15 PM 69.8 °F 33.8 °F 27% 30.16 in 10.0 mi WNW 19.6 mph 25.3 mph N/A   Clear
3:35 PM 71.6 °F 33.8 °F 25% 30.16 in 10.0 mi WNW 16.1 mph 26.5 mph N/A   Clear
4:15 PM 68.0 °F 35.6 °F 30% 30.18 in 10.0 mi WNW 17.3 mph 24.2 mph N/A   Clear
4:35 PM 68.0 °F 35.6 °F 30% 30.18 in 10.0 mi West 16.1 mph 26.5 mph N/A   Clear
4:55 PM 69.8 °F 35.6 °F 28% 30.18 in 10.0 mi West 17.3 mph 26.5 mph N/A   Clear
5:15 PM 68.0 °F 35.6 °F 30% 30.18 in 10.0 mi West 19.6 mph 24.2 mph N/A   Clear
5:35 PM 68.0 °F 35.6 °F 30% 30.19 in 10.0 mi WNW 16.1 mph 23.0 mph N/A   Clear
6:15 PM 64.4 °F 35.6 °F 34% 30.20 in 10.0 mi West 10.4 mph - N/A   Clear
6:35 PM 62.6 °F 35.6 °F 37% 30.21 in 10.0 mi West 4.6 mph - N/A   Clear
6:55 PM 59.0 °F 33.8 °F 39% 30.21 in 10.0 mi WNW 6.9 mph - N/A   Clear
7:15 PM 57.2 °F 35.6 °F 44% 30.22 in 10.0 mi NW 6.9 mph - N/A   Clear
7:35 PM 57.2 °F 35.6 °F 44% 30.23 in 10.0 mi WNW 9.2 mph - N/A   Clear
7:55 PM 57.2 °F 35.6 °F 44% 30.23 in 10.0 mi West 13.8 mph - N/A   Clear
8:15 PM 57.2 °F 35.6 °F 44% 30.23 in 10.0 mi West 12.7 mph - N/A   Clear
8:35 PM 55.4 °F 35.6 °F 47% 30.25 in 10.0 mi NNE 5.8 mph - N/A   Clear
8:55 PM 57.2 °F 37.4 °F 48% 30.27 in 10.0 mi NE 4.6 mph - N/A   Clear
9:15 PM 57.2 °F 39.2 °F 51% 30.27 in 10.0 mi Calm Calm - N/A   Clear
9:35 PM 55.4 °F 39.2 °F 54% 30.28 in 10.0 mi West 5.8 mph - N/A   Clear
9:55 PM 53.6 °F 37.4 °F 54% 30.29 in 10.0 mi WNW 4.6 mph - N/A   Clear
10:15 PM 55.4 °F 39.2 °F 54% 30.29 in 10.0 mi WNW 4.6 mph - N/A   Clear
10:35 PM 51.8 °F 39.2 °F 62% 30.30 in 10.0 mi NNW 5.8 mph - N/A   Clear
10:55 PM 53.6 °F 39.2 °F 58% 30.30 in 10.0 mi NNW 4.6 mph - N/A   Clear
11:15 PM 50.0 °F 39.2 °F 66% 30.31 in 10.0 mi NNW 4.6 mph - N/A   Clear
11:35 PM 48.2 °F 39.2 °F 71% 30.32 in 10.0 mi Calm Calm - N/A   Clear
11:55 PM 53.6 °F 39.2 °F 58% 30.33 in 10.0 mi NW 4.6 mph - N/A   Clear